International Skating Union - Official Site

Essent ISU World Cup Heerenveen
December 2-4, 2011

Draw | Lap Times | Index | World Cup

Referee: Daniel  CABELDUC  (SWE)
Starter: Bernhard  MAYER  (GER)
StartTime: EndTime: Air Temp: Ice Temp: Humidity:
15:23 17:27 17.5℃ -13.7℃ 29%
Result 10000m Men Division A
Rankings as of Oct 12 2012 5:02PM
Rank: No.: Name: Nation: Time: Behind: Points:
1 72 Jorrit  BERGSMA NED NED 12:50.33400m - 35.63 - (35.6)
800m - 1:06.30 - (30.6)
1200m - 1:37.31 - (31.0)
1600m - 2:08.31 - (31.0)
2000m - 2:39.33 - (31.0)
2400m - 3:09.90 - (30.5)
2800m - 3:40.45 - (30.5)
3200m - 4:11.09 - (30.6)
3600m - 4:41.74 - (30.6)
4000m - 5:12.62 - (30.8)
4400m - 5:43.39 - (30.7)
4800m - 6:14.23 - (30.8)
5200m - 6:45.19 - (30.9)
5600m - 7:16.10 - (30.9)
6000m - 7:46.50 - (30.4)
6400m - 8:17.04 - (30.5)
6800m - 8:47.46 - (30.4)
7200m - 9:17.92 - (30.4)
7600m - 9:48.34 - (30.4)
8000m - 10:18.74 - (30.4)
8400m - 10:49.19 - (30.4)
8800m - 11:19.58 - (30.3)
9200m - 11:49.92 - (30.3)
9600m - 12:20.24 - (30.3)
10000m - 12:50.33 - (30.0)
100
2 77 Bob  de JONG NED NED 12:55.11400m - 35.83 - (35.8)
800m - 1:07.18 - (31.3)
1200m - 1:38.41 - (31.2)
1600m - 2:09.58 - (31.1)
2000m - 2:40.53 - (30.9)
2400m - 3:11.73 - (31.2)
2800m - 3:42.52 - (30.7)
3200m - 4:13.52 - (31.0)
3600m - 4:44.35 - (30.8)
4000m - 5:15.28 - (30.9)
4400m - 5:46.09 - (30.8)
4800m - 6:16.89 - (30.8)
5200m - 6:47.58 - (30.6)
5600m - 7:18.28 - (30.7)
6000m - 7:48.96 - (30.6)
6400m - 8:19.55 - (30.5)
6800m - 8:50.01 - (30.4)
7200m - 9:20.65 - (30.6)
7600m - 9:51.12 - (30.4)
8000m - 10:21.79 - (30.6)
8400m - 10:52.54 - (30.7)
8800m - 11:23.39 - (30.8)
9200m - 11:54.00 - (30.6)
9600m - 12:24.66 - (30.6)
10000m - 12:55.11 - (30.4)
4.78 80
3 86 Bob  de VRIES NED NED 13:03.41400m - 35.72 - (35.7)
800m - 1:06.83 - (31.1)
1200m - 1:38.38 - (31.5)
1600m - 2:09.74 - (31.3)
2000m - 2:41.13 - (31.3)
2400m - 3:12.20 - (31.0)
2800m - 3:43.28 - (31.0)
3200m - 4:14.34 - (31.0)
3600m - 4:45.45 - (31.1)
4000m - 5:16.55 - (31.1)
4400m - 5:47.42 - (30.8)
4800m - 6:18.31 - (30.9)
5200m - 6:49.76 - (31.4)
5600m - 7:21.24 - (31.4)
6000m - 7:52.83 - (31.5)
6400m - 8:24.18 - (31.3)
6800m - 8:55.27 - (31.0)
7200m - 9:26.38 - (31.1)
7600m - 9:57.32 - (30.9)
8000m - 10:28.21 - (30.8)
8400m - 10:59.11 - (30.9)
8800m - 11:29.96 - (30.8)
9200m - 12:01.00 - (31.0)
9600m - 12:32.10 - (31.1)
10000m - 13:03.41 - (31.3)
13.08 70
4 89 Håvard  BØKKO NOR NOR 13:05.55400m - 34.52 - (34.5)
800m - 1:05.33 - (30.8)
1200m - 1:36.80 - (31.4)
1600m - 2:08.34 - (31.5)
2000m - 2:39.98 - (31.6)
2400m - 3:11.13 - (31.1)
2800m - 3:42.60 - (31.4)
3200m - 4:13.79 - (31.1)
3600m - 4:45.04 - (31.2)
4000m - 5:16.56 - (31.5)
4400m - 5:47.96 - (31.4)
4800m - 6:19.14 - (31.1)
5200m - 6:50.59 - (31.4)
5600m - 7:22.07 - (31.4)
6000m - 7:53.51 - (31.4)
6400m - 8:24.80 - (31.2)
6800m - 8:55.95 - (31.1)
7200m - 9:27.18 - (31.2)
7600m - 9:58.41 - (31.2)
8000m - 10:29.55 - (31.1)
8400m - 11:00.65 - (31.1)
8800m - 11:31.78 - (31.1)
9200m - 12:03.04 - (31.2)
9600m - 12:34.30 - (31.2)
10000m - 13:05.55 - (31.2)
15.22 60
5 87 Douwe  de VRIES NED NED 13:08.32400m - 34.62 - (34.6)
800m - 1:05.40 - (30.7)
1200m - 1:36.57 - (31.1)
1600m - 2:07.70 - (31.1)
2000m - 2:38.52 - (30.8)
2400m - 3:09.39 - (30.8)
2800m - 3:40.41 - (31.0)
3200m - 4:11.51 - (31.1)
3600m - 4:42.57 - (31.0)
4000m - 5:13.79 - (31.2)
4400m - 5:45.18 - (31.4)
4800m - 6:16.66 - (31.4)
5200m - 6:48.14 - (31.4)
5600m - 7:19.83 - (31.6)
6000m - 7:51.43 - (31.6)
6400m - 8:23.06 - (31.6)
6800m - 8:54.57 - (31.5)
7200m - 9:26.29 - (31.7)
7600m - 9:58.10 - (31.8)
8000m - 10:29.94 - (31.8)
8400m - 11:01.85 - (31.9)
8800m - 11:33.56 - (31.7)
9200m - 12:05.28 - (31.7)
9600m - 12:36.78 - (31.5)
10000m - 13:08.32 - (31.5)
17.99 50
6 112 Ivan  SKOBREV RUS RUS 13:09.42400m - 36.92 - (36.9)
800m - 1:08.55 - (31.6)
1200m - 1:40.11 - (31.5)
1600m - 2:11.82 - (31.7)
2000m - 2:43.68 - (31.8)
2400m - 3:15.73 - (32.0)
2800m - 3:47.43 - (31.7)
3200m - 4:19.07 - (31.6)
3600m - 4:50.88 - (31.8)
4000m - 5:22.80 - (31.9)
4400m - 5:54.43 - (31.6)
4800m - 6:26.14 - (31.7)
5200m - 6:57.57 - (31.4)
5600m - 7:28.84 - (31.2)
6000m - 7:59.96 - (31.1)
6400m - 8:31.20 - (31.2)
6800m - 9:02.54 - (31.3)
7200m - 9:33.72 - (31.1)
7600m - 10:04.92 - (31.2)
8000m - 10:36.11 - (31.1)
8400m - 11:06.96 - (30.8)
8800m - 11:37.75 - (30.8)
9200m - 12:08.33 - (30.5)
9600m - 12:38.98 - (30.6)
10000m - 13:09.42 - (30.4)
19.09 45
7 119 Jonathan  KUCK USA USA 13:11.57400m - 35.64 - (35.6)
800m - 1:07.61 - (31.9)
1200m - 1:39.95 - (32.3)
1600m - 2:12.05 - (32.1)
2000m - 2:44.36 - (32.3)
2400m - 3:16.62 - (32.2)
2800m - 3:48.63 - (32.0)
3200m - 4:20.56 - (31.9)
3600m - 4:52.09 - (31.5)
4000m - 5:23.59 - (31.4)
4400m - 5:55.10 - (31.5)
4800m - 6:26.52 - (31.4)
5200m - 6:57.75 - (31.2)
5600m - 7:29.28 - (31.5)
6000m - 8:00.49 - (31.2)
6400m - 8:31.71 - (31.2)
6800m - 9:02.89 - (31.1)
7200m - 9:34.18 - (31.2)
7600m - 10:05.44 - (31.2)
8000m - 10:36.52 - (31.0)
8400m - 11:07.68 - (31.1)
8800m - 11:38.77 - (31.0)
9200m - 12:09.54 - (30.7)
9600m - 12:40.52 - (30.9)
10000m - 13:11.57 - (31.0)
21.24 40
8 29 Alexis  CONTIN FRA FRA 13:14.72400m - 35.20 - (35.2)
800m - 1:06.81 - (31.6)
1200m - 1:38.66 - (31.8)
1600m - 2:09.57 - (30.9)
2000m - 2:40.66 - (31.0)
2400m - 3:11.71 - (31.0)
2800m - 3:42.95 - (31.2)
3200m - 4:14.53 - (31.5)
3600m - 4:45.37 - (30.8)
4000m - 5:17.01 - (31.6)
4400m - 5:48.62 - (31.6)
4800m - 6:20.25 - (31.6)
5200m - 6:51.82 - (31.5)
5600m - 7:23.40 - (31.5)
6000m - 7:54.89 - (31.4)
6400m - 8:26.50 - (31.6)
6800m - 8:58.31 - (31.8)
7200m - 9:30.03 - (31.7)
7600m - 10:02.05 - (32.0)
8000m - 10:34.08 - (32.0)
8400m - 11:06.19 - (32.1)
8800m - 11:38.26 - (32.0)
9200m - 12:10.27 - (32.0)
9600m - 12:42.35 - (32.0)
10000m - 13:14.72 - (32.3)
24.39 35
9 78 Sven  KRAMER NED NED 13:15.46400m - 34.05 - (34.0)
800m - 1:05.00 - (30.9)
1200m - 1:36.09 - (31.0)
1600m - 2:07.03 - (30.9)
2000m - 2:37.94 - (30.9)
2400m - 3:08.69 - (30.7)
2800m - 3:39.70 - (31.0)
3200m - 4:10.55 - (30.8)
3600m - 4:41.73 - (31.1)
4000m - 5:12.55 - (30.8)
4400m - 5:43.84 - (31.2)
4800m - 6:14.94 - (31.1)
5200m - 6:46.84 - (31.9)
5600m - 7:17.92 - (31.0)
6000m - 7:49.37 - (31.4)
6400m - 8:20.76 - (31.3)
6800m - 8:52.54 - (31.7)
7200m - 9:24.36 - (31.8)
7600m - 9:56.15 - (31.7)
8000m - 10:28.57 - (32.4)
8400m - 11:01.53 - (32.9)
8800m - 11:34.64 - (33.1)
9200m - 12:07.99 - (33.3)
9600m - 12:41.50 - (33.5)
10000m - 13:15.46 - (33.9)
25.13 30
10 34 Moritz  GEISREITER GER GER 13:17.24400m - 34.82 - (34.8)
800m - 1:05.40 - (30.5)
1200m - 1:36.66 - (31.2)
1600m - 2:08.41 - (31.7)
2000m - 2:39.98 - (31.5)
2400m - 3:11.74 - (31.7)
2800m - 3:43.16 - (31.4)
3200m - 4:14.66 - (31.5)
3600m - 4:45.94 - (31.2)
4000m - 5:16.91 - (30.9)
4400m - 5:48.30 - (31.3)
4800m - 6:20.09 - (31.7)
5200m - 6:51.72 - (31.6)
5600m - 7:23.69 - (31.9)
6000m - 7:55.73 - (32.0)
6400m - 8:27.32 - (31.5)
6800m - 8:59.18 - (31.8)
7200m - 9:30.98 - (31.8)
7600m - 10:03.13 - (32.1)
8000m - 10:35.37 - (32.2)
8400m - 11:07.48 - (32.1)
8800m - 11:39.73 - (32.2)
9200m - 12:12.51 - (32.7)
9600m - 12:44.94 - (32.4)
10000m - 13:17.24 - (32.3)
26.91 25
11 92 Øystein  GRØDUM NOR NOR 13:30.28400m - 35.98 - (35.9)
800m - 1:07.87 - (31.8)
1200m - 1:39.87 - (32.0)
1600m - 2:11.71 - (31.8)
2000m - 2:43.62 - (31.9)
2400m - 3:15.76 - (32.1)
2800m - 3:47.80 - (32.0)
3200m - 4:20.14 - (32.3)
3600m - 4:52.20 - (32.0)
4000m - 5:24.69 - (32.4)
4400m - 5:57.10 - (32.4)
4800m - 6:29.58 - (32.4)
5200m - 7:01.96 - (32.3)
5600m - 7:34.33 - (32.3)
6000m - 8:06.94 - (32.6)
6400m - 8:39.67 - (32.7)
6800m - 9:12.32 - (32.6)
7200m - 9:44.96 - (32.6)
7600m - 10:17.47 - (32.5)
8000m - 10:49.93 - (32.4)
8400m - 11:22.21 - (32.2)
8800m - 11:54.75 - (32.5)
9200m - 12:26.97 - (32.2)
9600m - 12:58.88 - (31.9)
10000m - 13:30.28 - (31.3)
39.95 20
12 3 Bart  SWINGS BEL BEL 13:33.44400m - 35.01 - (35.0)
800m - 1:06.45 - (31.4)
1200m - 1:38.09 - (31.6)
1600m - 2:10.03 - (31.9)
2000m - 2:41.44 - (31.4)
2400m - 3:13.33 - (31.9)
2800m - 3:45.33 - (32.0)
3200m - 4:17.17 - (31.8)
3600m - 4:49.18 - (32.0)
4000m - 5:21.45 - (32.2)
4400m - 5:53.73 - (32.2)
4800m - 6:26.06 - (32.3)
5200m - 6:58.34 - (32.2)
5600m - 7:30.69 - (32.3)
6000m - 8:03.17 - (32.4)
6400m - 8:35.60 - (32.4)
6800m - 9:08.31 - (32.7)
7200m - 9:41.03 - (32.7)
7600m - 10:14.01 - (32.9)
8000m - 10:47.14 - (33.1)
8400m - 11:20.49 - (33.3)
8800m - 11:53.86 - (33.3)
9200m - 12:27.18 - (33.3)
9600m - 13:00.27 - (33.0)
10000m - 13:33.44 - (33.1)
43.11 15